Change the Weather History Date:

Saturday, April 13, 2013

  Actual Average (KISN) Record (KISN)
Temperature  
Mean Temperature 32 °F 42 °F  
Max Temperature 44 °F 56 °F 84 °F (1915)
Min Temperature 21 °F 29 °F 9 °F (1909)
Degree Days  
Heating Degree Days 32 23  
Month to date heating degree days 328  
Since 1 July heating degree days 8203  
Cooling Degree Days 0 0  
Month to date cooling degree days 0  
Year to date cooling degree days 0  
Moisture  
Dew Point 26 °F    
Average Humidity 79    
Maximum Humidity 100    
Minimum Humidity 49    
Precipitation  
Precipitation 0.00 in 0.03 in 1.71 in (1986)
Month to date precipitation 0.37  
Year to date precipitation 2.06  
Sea Level Pressure  
Sea Level Pressure 29.70 in    
Wind  
Wind Speed 9 mph (ESE)    
Max Wind Speed 25 mph    
Max Gust Speed 34 mph    
Visibility 10 miles    
Events      
T = Trace of Precipitation, MM = Missing Value Source: NWS Daily Summary

Daily Weather History Graph

Daily Weather History Graph

Search for Another Location

Airport or City:

Trip Planner

Search our weather history database for the weather conditions in past years. The results will help you decide how hot, cold, wet, or windy it might be!

Date:

Astronomy

Apr. 13, 2013 Rise Set
Actual Time 7:07 AM CDT 8:40 PM CDT
Civil Twilight 6:34 AM CDT 9:13 PM CDT
Nautical Twilight 5:55 AM CDT 9:52 PM CDT
Astronomical Twilight 5:13 AM CDT 10:35 PM CDT
Moon 8:48 AM CDT (4/13) No Moon Set
Length of Visible Light 14h 38m
Length of Day
13h 33m
Waxing Crescent, 10% of the Moon is Illuminated
Apr 13
Waxing Crescent
Apr 18
First Quarter
Apr 25
Full
May 2
Last Quarter
May 9
New

Hourly Weather History & Observations

Time (CDT) Temp. Windchill Dew Point Humidity Pressure Visibility Wind Dir Wind Speed Gust Speed Precip Events Conditions
12:15 AM 24.8 °F 19.1 °F 24.8 °F 100% 29.89 in 10.0 mi SW 4.6 mph - N/A   Clear
12:35 AM 24.8 °F - 24.8 °F 100% 29.88 in 10.0 mi Calm Calm - N/A   Clear
12:55 AM 24.8 °F 17.9 °F 24.8 °F 100% 29.89 in 10.0 mi WSW 5.8 mph - N/A   Partly Cloudy
1:15 AM 26.6 °F 22.6 °F 24.8 °F 93% 29.88 in 10.0 mi SW 3.5 mph - N/A   Mostly Cloudy
1:35 AM 26.6 °F - 24.8 °F 93% 29.88 in 10.0 mi Calm Calm - N/A   Mostly Cloudy
1:55 AM 24.8 °F - 24.8 °F 100% 29.87 in 9.0 mi Calm Calm - N/A   Scattered Clouds
2:15 AM 24.8 °F - 24.8 °F 100% 29.86 in 8.0 mi Calm Calm - N/A   Clear
2:35 AM 23.0 °F - 23.0 °F 100% 29.85 in 8.0 mi Calm Calm - N/A   Clear
2:55 AM 23.0 °F - 23.0 °F 100% 29.85 in 9.0 mi Calm Calm - N/A   Clear
3:15 AM 23.0 °F - 23.0 °F 100% 29.84 in 8.0 mi Calm Calm - N/A   Clear
3:35 AM 23.0 °F - 23.0 °F 100% 29.82 in 7.0 mi Calm Calm - N/A   Clear
3:55 AM 21.2 °F - 21.2 °F 100% 29.81 in 7.0 mi Calm Calm - N/A   Clear
4:15 AM 23.0 °F - 21.2 °F 93% 29.80 in 8.0 mi Calm Calm - N/A   Clear
4:35 AM 23.0 °F - 23.0 °F 100% 29.81 in 9.0 mi Calm Calm - N/A   Clear
4:55 AM 21.2 °F - 21.2 °F 100% 29.80 in 7.0 mi Calm Calm - N/A   Scattered Clouds
5:15 AM 23.0 °F - 23.0 °F 100% 29.80 in 7.0 mi Calm Calm - N/A   Overcast
5:35 AM 23.0 °F - 23.0 °F 100% 29.80 in 7.0 mi Calm Calm - N/A   Overcast
5:55 AM 24.8 °F 20.5 °F 24.8 °F 100% 29.79 in 9.0 mi ENE 3.5 mph - N/A   Overcast
6:15 AM 24.8 °F 16.1 °F 24.8 °F 100% 29.79 in 10.0 mi East 8.1 mph - N/A   Overcast
6:35 AM 24.8 °F 15.3 °F 24.8 °F 100% 29.78 in 10.0 mi ESE 9.2 mph - N/A   Overcast
6:55 AM 24.8 °F 15.3 °F 24.8 °F 100% 29.77 in 10.0 mi ESE 9.2 mph - N/A   Overcast
7:15 AM 24.8 °F 14.6 °F 24.8 °F 100% 29.76 in 10.0 mi ESE 10.4 mph - N/A   Overcast
7:35 AM 26.6 °F 17.5 °F 24.8 °F 93% 29.76 in 10.0 mi ESE 9.2 mph - N/A   Overcast
7:55 AM 26.6 °F 17.5 °F 26.6 °F 100% 29.76 in 10.0 mi ESE 9.2 mph - N/A   Overcast
8:15 AM 26.6 °F 18.2 °F 26.6 °F 100% 29.75 in 10.0 mi ESE 8.1 mph - N/A   Overcast
8:35 AM 26.6 °F 18.2 °F 26.6 °F 100% 29.75 in 10.0 mi ESE 8.1 mph - N/A   Mostly Cloudy
8:55 AM 28.4 °F 19.7 °F 28.4 °F 100% 29.74 in 10.0 mi ESE 9.2 mph - N/A   Mostly Cloudy
9:15 AM 30.2 °F 20.2 °F 28.4 °F 93% 29.73 in 10.0 mi ESE 12.7 mph - N/A   Overcast
9:35 AM 30.2 °F 21.3 °F 28.4 °F 93% 29.72 in 10.0 mi SE 10.4 mph - N/A   Overcast
9:55 AM 32.0 °F 21.6 °F 26.6 °F 80% 29.72 in 10.0 mi ESE 15.0 mph - N/A   Overcast
10:15 AM 32.0 °F 21.2 °F 24.8 °F 75% 29.71 in 10.0 mi ESE 16.1 mph - N/A   Overcast
10:35 AM 33.8 °F 23.9 °F 24.8 °F 70% 29.70 in 10.0 mi ESE 15.0 mph 21.9 mph N/A   Mostly Cloudy
10:55 AM 35.6 °F 26.6 °F 24.8 °F 65% 29.70 in 10.0 mi SE 13.8 mph - N/A   Partly Cloudy
11:15 AM 35.6 °F 26.2 °F 26.6 °F 70% 29.69 in 10.0 mi ESE 15.0 mph 18.4 mph N/A   Partly Cloudy
11:35 AM 35.6 °F 26.6 °F 24.8 °F 65% 29.68 in 10.0 mi ESE 13.8 mph 20.7 mph N/A   Mostly Cloudy
11:55 AM 37.4 °F 28.2 °F 26.6 °F 65% 29.67 in 10.0 mi ESE 16.1 mph - N/A   Scattered Clouds
12:15 PM 37.4 °F 28.9 °F 26.6 °F 65% 29.67 in 10.0 mi ESE 13.8 mph 21.9 mph N/A   Mostly Cloudy
12:35 PM 39.2 °F 29.8 °F 26.6 °F 61% 29.65 in 10.0 mi SE 18.4 mph 24.2 mph N/A   Mostly Cloudy
12:55 PM 39.2 °F 29.8 °F 26.6 °F 61% 29.64 in 10.0 mi ESE 18.4 mph 25.3 mph N/A   Clear
1:15 PM 41.0 °F 31.6 °F 26.6 °F 57% 29.63 in 10.0 mi ESE 20.7 mph 26.5 mph N/A   Partly Cloudy
1:35 PM 41.0 °F 32.2 °F 26.6 °F 57% 29.62 in 10.0 mi SE 18.4 mph 24.2 mph N/A   Partly Cloudy
1:55 PM 41.0 °F 31.6 °F 26.6 °F 57% 29.61 in 10.0 mi ESE 20.7 mph 31.1 mph N/A   Clear
2:15 PM 42.8 °F 35.1 °F 26.6 °F 53% 29.60 in 10.0 mi ESE 16.1 mph 29.9 mph N/A   Scattered Clouds
2:35 PM 44.6 °F 36.9 °F 26.6 °F 49% 29.60 in 10.0 mi ESE 18.4 mph 26.5 mph N/A   Mostly Cloudy
2:55 PM 44.6 °F 36.4 °F 26.6 °F 49% 29.60 in 10.0 mi SE 20.7 mph 29.9 mph N/A   Overcast
3:15 PM 44.6 °F 36.4 °F 26.6 °F 49% 29.60 in 10.0 mi SE 20.7 mph - N/A   Overcast
3:35 PM 44.6 °F 37.4 °F 28.4 °F 53% 29.59 in 10.0 mi ESE 16.1 mph 26.5 mph N/A   Mostly Cloudy
3:55 PM 42.8 °F 33.8 °F 28.4 °F 57% 29.59 in 10.0 mi ESE 21.9 mph 28.8 mph N/A   Mostly Cloudy
4:15 PM 44.6 °F 36.1 °F 28.4 °F 53% 29.58 in 10.0 mi East 21.9 mph 32.2 mph N/A   Partly Cloudy
4:35 PM 42.8 °F 33.1 °F 28.4 °F 57% 29.58 in 10.0 mi East 25.3 mph 32.2 mph N/A   Partly Cloudy
4:55 PM 44.6 °F 36.4 °F 28.4 °F 53% 29.58 in 10.0 mi East 20.7 mph 34.5 mph N/A   Scattered Clouds
5:15 PM 41.0 °F 30.7 °F 28.4 °F 61% 29.58 in 10.0 mi East 25.3 mph 33.4 mph N/A   Mostly Cloudy
5:35 PM 41.0 °F 31.1 °F 26.6 °F 57% 29.58 in 10.0 mi East 23.0 mph 31.1 mph N/A   Mostly Cloudy
5:55 PM 41.0 °F 30.7 °F 26.6 °F 57% 29.59 in 10.0 mi East 25.3 mph 31.1 mph N/A   Scattered Clouds
6:15 PM 39.2 °F 28.7 °F 26.6 °F 61% 29.59 in 10.0 mi East 23.0 mph 32.2 mph N/A   Partly Cloudy
6:35 PM 39.2 °F 29.3 °F 26.6 °F 61% 29.60 in 10.0 mi East 20.7 mph 28.8 mph N/A   Mostly Cloudy
6:55 PM 39.2 °F 28.7 °F 26.6 °F 61% 29.60 in 10.0 mi East 23.0 mph 31.1 mph N/A   Scattered Clouds
7:15 PM 37.4 °F 26.4 °F 26.6 °F 65% 29.60 in 10.0 mi East 23.0 mph 32.2 mph N/A   Partly Cloudy
7:35 PM 37.4 °F 26.1 °F 26.6 °F 65% 29.60 in 10.0 mi East 24.2 mph 31.1 mph N/A   Mostly Cloudy
7:55 PM 35.6 °F 25.2 °F 26.6 °F 70% 29.61 in 10.0 mi East 18.4 mph 28.8 mph N/A   Overcast
8:15 PM 35.6 °F 24.2 °F 26.6 °F 70% 29.62 in 10.0 mi East 21.9 mph 27.6 mph N/A   Overcast
8:35 PM 35.6 °F 24.8 °F 26.6 °F 70% 29.62 in 10.0 mi East 19.6 mph 27.6 mph N/A   Mostly Cloudy
8:55 PM 33.8 °F 22.2 °F 26.6 °F 75% 29.63 in 10.0 mi East 20.7 mph - N/A   Mostly Cloudy
9:15 PM 32.0 °F 20.5 °F 26.6 °F 80% 29.63 in 10.0 mi East 18.4 mph 27.6 mph N/A   Mostly Cloudy
9:55 PM 32.0 °F 19.8 °F 26.6 °F 80% 29.65 in 10.0 mi East 20.7 mph 29.9 mph N/A   Overcast
10:15 PM 32.0 °F 18.9 °F 26.6 °F 80% 29.65 in 10.0 mi East 24.2 mph 29.9 mph N/A   Overcast
10:35 PM 32.0 °F 19.2 °F 26.6 °F 80% 29.65 in 10.0 mi East 23.0 mph 33.4 mph N/A   Overcast
10:55 PM 32.0 °F 20.5 °F 26.6 °F 80% 29.66 in 10.0 mi East 18.4 mph 29.9 mph N/A   Overcast
11:15 PM 30.2 °F 17.8 °F 26.6 °F 86% 29.66 in 10.0 mi East 19.6 mph 29.9 mph N/A   Overcast
11:35 PM 30.2 °F 16.8 °F 26.6 °F 86% 29.66 in 10.0 mi East 23.0 mph 29.9 mph N/A   Overcast
11:55 PM 30.2 °F 16.5 °F 26.6 °F 86% 29.66 in 10.0 mi East 24.2 mph 31.1 mph N/A   Overcast